Time,TemperatureF,DewpointF,PressureIn,WindDirection,WindDirectionDegrees,WindSpeedMPH,WindSpeedGustMPH,Humidity,HourlyPrecipIn,Conditions,Clouds,dailyrainin,SoftwareType,DateUTC
2013-07-06 00:00:00,71.4,63.1,29.91,SSW,202,2.9,4.0,75,0.00,,CLR,0.00,VWS V14.01,2013-07-06 04:00:00,
2013-07-06 00:01:00,71.4,63.8,29.91,South,180,2.5,3.1,77,0.00,,CLR,0.00,VWS V14.01,2013-07-06 04:01:00,
2013-07-06 00:02:00,71.4,63.8,29.91,South,180,2.5,3.1,77,0.00,,CLR,0.00,VWS V14.01,2013-07-06 04:02:00,
2013-07-06 00:03:00,71.4,63.8,29.91,South,180,2.5,3.1,77,0.00,,CLR,0.00,VWS V14.01,2013-07-06 04:03:00,
2013-07-06 00:08:00,71.4,64.2,29.91,South,180,2.5,3.1,78,0.00,,CLR,0.00,VWS V14.01,2013-07-06 04:08:00,
2013-07-06 00:09:00,71.2,64.0,29.91,SSW,202,2.5,3.1,78,0.00,,CLR,0.00,VWS V14.01,2013-07-06 04:09:00,
2013-07-06 00:14:00,71.1,64.2,29.91,SSW,202,2.7,3.1,79,0.00,,CLR,0.00,VWS V14.01,2013-07-06 04:14:00,
2013-07-06 00:15:00,71.1,64.2,29.91,SSW,202,2.7,3.1,79,0.00,,CLR,0.00,VWS V14.01,2013-07-06 04:15:00,
2013-07-06 00:20:00,71.1,64.2,29.88,SSE,158,2.9,3.1,79,0.00,,CLR,0.00,VWS V14.01,2013-07-06 04:20:00,
2013-07-06 00:25:00,70.9,64.4,29.88,SSE,158,2.9,3.1,80,0.00,,CLR,0.00,VWS V14.01,2013-07-06 04:25:00,
2013-07-06 00:30:00,70.9,64.4,29.88,SSE,158,2.9,3.1,80,0.00,,CLR,0.00,VWS V14.01,2013-07-06 04:30:00,
2013-07-06 00:36:00,70.7,64.2,29.91,SSE,158,3.1,3.4,80,0.00,,CLR,0.00,VWS V14.01,2013-07-06 04:36:00,
2013-07-06 00:41:00,70.7,64.6,29.91,South,180,4.3,4.3,81,0.00,,CLR,0.00,VWS V14.01,2013-07-06 04:41:00,
2013-07-06 00:46:00,70.9,64.8,29.91,South,180,4.3,4.3,81,0.00,,CLR,0.00,VWS V14.01,2013-07-06 04:46:00,
2013-07-06 00:51:00,70.7,64.6,29.91,South,180,4.3,4.3,81,0.00,,CLR,0.00,VWS V14.01,2013-07-06 04:51:00,
2013-07-06 00:56:00,70.7,64.6,29.91,South,180,4.3,4.3,81,0.00,,CLR,0.00,VWS V14.01,2013-07-06 04:56:00,
2013-07-06 01:00:00,70.7,64.6,29.91,South,180,4.3,4.3,81,0.00,,CLR,0.00,VWS V14.01,2013-07-06 05:00:00,
2013-07-06 01:01:00,70.7,64.6,29.91,South,180,4.3,4.3,81,0.00,,CLR,0.00,VWS V14.01,2013-07-06 05:01:00,
2013-07-06 01:06:00,70.5,64.4,29.91,South,180,4.3,4.3,81,0.00,,CLR,0.00,VWS V14.01,2013-07-06 05:06:00,
2013-07-06 01:11:00,70.5,64.4,29.91,South,180,4.3,4.3,81,0.00,,CLR,0.00,VWS V14.01,2013-07-06 05:11:00,
2013-07-06 01:16:00,70.5,64.1,29.91,South,180,2.9,4.3,80,0.00,,CLR,0.00,VWS V14.01,2013-07-06 05:16:00,
2013-07-06 01:21:00,70.5,64.1,29.91,SSW,202,3.4,4.3,80,0.00,,CLR,0.00,VWS V14.01,2013-07-06 05:21:00,
2013-07-06 01:26:00,70.5,64.1,29.91,South,180,2.9,4.3,80,0.00,,CLR,0.00,VWS V14.01,2013-07-06 05:26:00,
2013-07-06 01:31:00,70.5,64.1,29.91,SSW,202,2.7,4.3,80,0.00,,CLR,0.00,VWS V14.01,2013-07-06 05:31:00,
2013-07-06 01:36:00,70.5,64.1,29.91,SSW,202,2.7,4.3,80,0.00,,CLR,0.00,VWS V14.01,2013-07-06 05:36:00,
2013-07-06 01:41:00,70.7,63.9,29.91,SSW,202,2.7,4.3,79,0.00,,CLR,0.00,VWS V14.01,2013-07-06 05:41:00,
2013-07-06 01:46:00,70.5,63.7,29.91,SSW,202,2.7,4.3,79,0.00,,CLR,0.00,VWS V14.01,2013-07-06 05:46:00,
2013-07-06 01:51:00,70.5,63.7,29.88,SSW,202,2.7,4.3,79,0.00,,CLR,0.00,VWS V14.01,2013-07-06 05:51:00,
2013-07-06 01:56:00,70.5,63.7,29.88,SSW,202,2.7,4.3,79,0.00,,CLR,0.00,VWS V14.01,2013-07-06 05:56:00,
2013-07-06 02:00:00,70.5,63.7,29.88,SSW,202,4.0,4.3,79,0.00,,CLR,0.00,VWS V14.01,2013-07-06 06:00:00,
2013-07-06 02:01:00,70.5,63.7,29.88,SSW,202,4.0,4.0,79,0.00,,CLR,0.00,VWS V14.01,2013-07-06 06:01:00,
2013-07-06 02:06:00,70.5,63.7,29.88,SSW,202,4.0,4.0,79,0.00,,CLR,0.00,VWS V14.01,2013-07-06 06:06:00,
2013-07-06 02:11:00,70.5,63.7,29.88,SSW,202,4.0,4.0,79,0.00,,CLR,0.00,VWS V14.01,2013-07-06 06:11:00,
2013-07-06 02:16:00,70.3,63.9,29.88,SSW,202,4.0,4.0,80,0.00,,CLR,0.00,VWS V14.01,2013-07-06 06:16:00,
2013-07-06 02:21:00,70.2,63.3,29.91,SSW,202,4.0,4.0,79,0.00,,CLR,0.00,VWS V14.01,2013-07-06 06:21:00,
2013-07-06 02:26:00,70.2,63.7,29.91,SSW,202,4.0,4.0,80,0.00,,CLR,0.00,VWS V14.01,2013-07-06 06:26:00,
2013-07-06 02:31:00,70.0,63.5,29.91,SSW,202,4.0,4.0,80,0.00,,CLR,0.00,VWS V14.01,2013-07-06 06:31:00,
2013-07-06 02:36:00,70.2,63.7,29.88,SSW,202,4.0,4.0,80,0.00,,CLR,0.00,VWS V14.01,2013-07-06 06:36:00,
2013-07-06 02:41:00,70.0,63.9,29.88,SSW,202,4.0,4.0,81,0.00,,CLR,0.00,VWS V14.01,2013-07-06 06:41:00,
2013-07-06 02:46:00,70.0,63.9,29.88,SSW,202,4.0,4.0,81,0.00,,CLR,0.00,VWS V14.01,2013-07-06 06:46:00,
2013-07-06 02:51:00,70.2,64.1,29.88,SSW,202,4.0,4.0,81,0.00,,CLR,0.00,VWS V14.01,2013-07-06 06:51:00,
2013-07-06 02:56:00,70.2,64.1,29.88,SSW,202,4.0,4.0,81,0.00,,CLR,0.00,VWS V14.01,2013-07-06 06:56:00,
2013-07-06 03:00:00,70.0,63.9,29.88,SSW,202,4.0,4.0,81,0.00,,CLR,0.00,VWS V14.01,2013-07-06 07:00:00,
2013-07-06 03:01:00,70.0,63.9,29.88,SSW,202,4.0,4.0,81,0.00,,CLR,0.00,VWS V14.01,2013-07-06 07:01:00,
2013-07-06 03:06:00,69.8,63.7,29.91,SSW,202,4.0,4.0,81,0.00,,CLR,0.00,VWS V14.01,2013-07-06 07:06:00,
2013-07-06 03:11:00,69.8,63.7,29.91,SSW,202,4.0,4.0,81,0.00,,CLR,0.00,VWS V14.01,2013-07-06 07:11:00,
2013-07-06 03:16:00,69.4,63.7,29.91,SSW,202,4.0,4.0,82,0.00,,CLR,0.00,VWS V14.01,2013-07-06 07:16:00,
2013-07-06 03:21:00,69.6,63.9,29.91,SSW,202,4.0,4.0,82,0.00,,CLR,0.00,VWS V14.01,2013-07-06 07:21:00,
2013-07-06 03:26:00,69.6,64.2,29.91,SSW,202,4.0,4.0,83,0.00,,CLR,0.00,VWS V14.01,2013-07-06 07:26:00,
2013-07-06 03:31:00,69.4,64.1,29.91,SSW,202,4.0,4.0,83,0.00,,CLR,0.00,VWS V14.01,2013-07-06 07:31:00,
2013-07-06 03:36:00,69.4,64.1,29.91,SSW,202,4.0,4.0,83,0.00,,CLR,0.00,VWS V14.01,2013-07-06 07:36:00,
2013-07-06 03:41:00,69.6,64.6,29.91,SSW,202,4.0,4.0,84,0.00,,CLR,0.00,VWS V14.01,2013-07-06 07:41:00,
2013-07-06 03:46:00,69.3,64.6,29.91,SSW,202,4.0,4.0,85,0.00,,CLR,0.00,VWS V14.01,2013-07-06 07:46:00,
2013-07-06 03:51:00,69.3,64.9,29.91,SSW,202,4.0,4.0,86,0.00,,CLR,0.00,VWS V14.01,2013-07-06 07:51:00,
2013-07-06 03:56:00,69.1,64.7,29.91,SSW,202,4.0,4.0,86,0.00,,CLR,0.00,VWS V14.01,2013-07-06 07:56:00,
2013-07-06 04:00:00,69.1,65.1,29.91,SSW,202,4.0,4.0,87,0.00,,CLR,0.00,VWS V14.01,2013-07-06 08:00:00,
2013-07-06 04:01:00,69.1,65.1,29.91,SSW,202,4.0,4.0,87,0.00,,CLR,0.00,VWS V14.01,2013-07-06 08:01:00,
2013-07-06 04:07:00,69.1,65.1,29.91,SSW,202,4.0,4.0,87,0.00,,CLR,0.00,VWS V14.01,2013-07-06 08:07:00,
2013-07-06 04:12:00,68.9,65.2,29.91,SSW,202,4.0,4.0,88,0.00,,CLR,0.00,VWS V14.01,2013-07-06 08:12:00,
2013-07-06 04:17:00,68.9,65.2,29.91,SSW,202,4.0,4.0,88,0.00,,CLR,0.00,VWS V14.01,2013-07-06 08:17:00,
2013-07-06 04:22:00,68.7,65.0,29.88,SSW,202,4.0,4.0,88,0.00,,CLR,0.00,VWS V14.01,2013-07-06 08:22:00,
2013-07-06 04:27:00,68.7,65.3,29.88,SSW,202,4.0,4.0,89,0.00,,CLR,0.00,VWS V14.01,2013-07-06 08:27:00,
2013-07-06 04:32:00,68.5,64.8,29.88,SSW,202,4.0,4.0,88,0.00,,CLR,0.00,VWS V14.01,2013-07-06 08:32:00,
2013-07-06 04:37:00,68.5,64.5,29.88,SSW,202,4.0,4.0,87,0.00,,CLR,0.00,VWS V14.01,2013-07-06 08:37:00,
2013-07-06 04:42:00,68.4,64.3,29.88,SSW,202,4.0,4.0,87,0.00,,CLR,0.00,VWS V14.01,2013-07-06 08:42:00,
2013-07-06 04:47:00,68.2,64.2,29.88,SSW,202,4.0,4.0,87,0.00,,CLR,0.00,VWS V14.01,2013-07-06 08:47:00,
2013-07-06 04:52:00,68.0,64.3,29.91,SSW,202,4.0,4.0,88,0.00,,CLR,0.00,VWS V14.01,2013-07-06 08:52:00,
2013-07-06 04:57:00,67.8,64.1,29.91,SSW,202,4.0,4.0,88,0.00,,CLR,0.00,VWS V14.01,2013-07-06 08:57:00,
2013-07-06 05:00:00,67.6,63.6,29.91,SSW,202,4.0,4.0,87,0.00,,CLR,0.00,VWS V14.01,2013-07-06 09:00:00,
2013-07-06 05:02:00,67.5,63.5,29.91,SSW,202,4.0,4.0,87,0.00,,CLR,0.00,VWS V14.01,2013-07-06 09:02:00,
2013-07-06 05:07:00,67.5,63.8,29.91,SSW,202,4.0,4.0,88,0.00,,CLR,0.00,VWS V14.01,2013-07-06 09:07:00,
2013-07-06 05:12:00,67.5,64.4,29.91,SSW,202,4.0,4.0,90,0.00,,CLR,0.00,VWS V14.01,2013-07-06 09:12:00,
2013-07-06 05:17:00,67.1,64.1,29.91,SSW,202,4.0,4.0,90,0.00,,CLR,0.00,VWS V14.01,2013-07-06 09:17:00,
2013-07-06 05:22:00,67.1,64.1,29.91,SSW,202,4.0,4.0,90,0.00,,CLR,0.00,VWS V14.01,2013-07-06 09:22:00,
2013-07-06 05:27:00,67.1,64.4,29.91,SSW,202,4.0,4.0,91,0.00,,CLR,0.00,VWS V14.01,2013-07-06 09:27:00,
2013-07-06 05:32:00,66.7,64.0,29.91,SSW,202,4.0,4.0,91,0.00,,CLR,0.00,VWS V14.01,2013-07-06 09:32:00,
2013-07-06 05:37:00,66.7,64.0,29.91,SSW,202,4.0,4.0,91,0.00,,CLR,0.00,VWS V14.01,2013-07-06 09:37:00,
2013-07-06 05:42:00,66.6,63.9,29.91,SSW,202,4.0,4.0,91,0.00,,CLR,0.00,VWS V14.01,2013-07-06 09:42:00,
2013-07-06 05:47:00,66.4,63.7,29.91,SSW,202,4.0,4.0,91,0.00,,CLR,0.00,VWS V14.01,2013-07-06 09:47:00,
2013-07-06 05:52:00,66.6,63.9,29.88,SSW,202,4.0,4.0,91,0.00,,CLR,0.00,VWS V14.01,2013-07-06 09:52:00,
2013-07-06 05:57:00,66.6,64.2,29.88,SSW,202,4.0,4.0,92,0.00,,CLR,0.00,VWS V14.01,2013-07-06 09:57:00,
2013-07-06 06:00:00,66.6,64.2,29.88,SSW,202,4.0,4.0,92,0.00,,CLR,0.00,VWS V14.01,2013-07-06 10:00:00,
2013-07-06 06:02:00,66.6,64.2,29.88,SSW,202,4.0,4.0,92,0.00,,CLR,0.00,VWS V14.01,2013-07-06 10:02:00,
2013-07-06 06:07:00,66.4,64.0,29.91,SSW,202,4.0,4.0,92,0.00,,CLR,0.00,VWS V14.01,2013-07-06 10:07:00,
2013-07-06 06:12:00,66.4,64.3,29.91,SSW,202,4.0,4.0,93,0.00,,CLR,0.00,VWS V14.01,2013-07-06 10:12:00,
2013-07-06 06:17:00,66.6,64.8,29.91,SSW,202,4.0,4.0,94,0.00,,CLR,0.00,VWS V14.01,2013-07-06 10:17:00,
2013-07-06 06:22:00,66.7,65.3,29.94,SSW,202,4.0,4.0,95,0.00,,CLR,0.00,VWS V14.01,2013-07-06 10:22:00,
2013-07-06 06:27:00,66.9,65.4,29.94,SSW,202,4.0,4.0,95,0.00,,CLR,0.00,VWS V14.01,2013-07-06 10:27:00,
2013-07-06 06:32:00,67.1,65.6,29.94,SSW,202,4.0,4.0,95,0.00,,CLR,0.00,VWS V14.01,2013-07-06 10:32:00,
2013-07-06 06:37:00,67.5,66.0,29.91,SSW,202,4.0,4.0,95,0.00,,CLR,0.00,VWS V14.01,2013-07-06 10:37:00,
2013-07-06 06:42:00,68.2,66.7,29.91,SSW,202,4.0,4.0,95,0.00,,CLR,0.00,VWS V14.01,2013-07-06 10:42:00,
2013-07-06 06:47:00,68.4,66.6,29.91,SSW,202,2.0,4.0,94,0.00,,CLR,0.00,VWS V14.01,2013-07-06 10:47:00,
2013-07-06 06:52:00,69.1,66.7,29.91,SSW,202,2.0,4.0,92,0.00,,CLR,0.00,VWS V14.01,2013-07-06 10:52:00,
2013-07-06 06:57:00,69.6,66.9,29.91,SSW,202,2.0,4.0,91,0.00,,CLR,0.00,VWS V14.01,2013-07-06 10:57:00,
2013-07-06 07:00:00,70.0,66.9,29.91,SSW,202,2.0,4.0,90,0.00,,CLR,0.00,VWS V14.01,2013-07-06 11:00:00,
2013-07-06 07:02:00,70.5,67.1,29.91,SSW,202,2.0,2.0,89,0.00,,CLR,0.00,VWS V14.01,2013-07-06 11:02:00,
2013-07-06 07:07:00,70.9,67.2,29.91,SSW,202,2.0,2.0,88,0.00,,CLR,0.00,VWS V14.01,2013-07-06 11:07:00,
2013-07-06 07:12:00,72.3,67.6,29.91,SSW,202,2.0,2.0,85,0.00,,CLR,0.00,VWS V14.01,2013-07-06 11:12:00,
2013-07-06 07:17:00,72.9,66.7,29.91,SSW,202,2.0,2.0,81,0.00,,CLR,0.00,VWS V14.01,2013-07-06 11:17:00,
2013-07-06 07:22:00,73.6,66.7,29.91,SSW,202,2.0,2.0,79,0.00,,CLR,0.00,VWS V14.01,2013-07-06 11:22:00,
2013-07-06 07:27:00,74.5,66.8,29.91,SSW,202,2.0,2.0,77,0.00,,CLR,0.00,VWS V14.01,2013-07-06 11:27:00,
2013-07-06 07:32:00,75.2,66.0,29.91,SSW,202,2.0,2.0,73,0.00,,CLR,0.00,VWS V14.01,2013-07-06 11:32:00,
2013-07-06 07:37:00,75.7,64.9,29.91,SSW,202,2.0,2.0,69,0.00,,CLR,0.00,VWS V14.01,2013-07-06 11:37:00,
2013-07-06 07:43:00,76.1,65.2,29.91,SW,225,2.7,3.1,69,0.00,,CLR,0.00,VWS V14.01,2013-07-06 11:43:00,
2013-07-06 07:48:00,76.6,64.9,29.91,SW,225,2.7,3.1,67,0.00,,CLR,0.00,VWS V14.01,2013-07-06 11:48:00,
2013-07-06 07:53:00,77.0,63.9,29.91,SW,225,2.7,3.1,64,0.00,,CLR,0.00,VWS V14.01,2013-07-06 11:53:00,
2013-07-06 07:58:00,77.5,64.9,29.91,SW,225,2.7,3.1,65,0.00,,CLR,0.00,VWS V14.01,2013-07-06 11:58:00,
2013-07-06 08:00:00,77.7,64.1,29.91,SW,225,2.7,3.1,63,0.00,,CLR,0.00,VWS V14.01,2013-07-06 12:00:00,
2013-07-06 08:03:00,78.1,64.5,29.91,SW,225,2.7,2.7,63,0.00,,CLR,0.00,VWS V14.01,2013-07-06 12:03:00,
2013-07-06 08:08:00,78.3,63.7,29.91,SW,225,2.7,2.7,61,0.00,,CLR,0.00,VWS V14.01,2013-07-06 12:08:00,
2013-07-06 08:13:00,78.6,63.6,29.91,SW,225,2.7,2.7,60,0.00,,CLR,0.00,VWS V14.01,2013-07-06 12:13:00,
2013-07-06 08:18:00,78.8,62.8,29.91,SW,225,2.7,2.7,58,0.00,,CLR,0.00,VWS V14.01,2013-07-06 12:18:00,
2013-07-06 08:23:00,79.0,62.5,29.91,SW,225,2.7,2.7,57,0.00,,CLR,0.00,VWS V14.01,2013-07-06 12:23:00,
2013-07-06 08:28:00,79.3,62.3,29.91,SW,225,2.7,2.7,56,0.00,,CLR,0.00,VWS V14.01,2013-07-06 12:28:00,
2013-07-06 08:33:00,79.5,62.5,29.91,SW,225,2.7,2.7,56,0.00,,CLR,0.00,VWS V14.01,2013-07-06 12:33:00,
2013-07-06 08:38:00,79.9,62.8,29.91,SW,225,2.7,2.7,56,0.00,,CLR,0.00,VWS V14.01,2013-07-06 12:38:00,
2013-07-06 08:43:00,80.2,62.6,29.91,SW,225,2.7,2.7,55,0.00,,CLR,0.00,VWS V14.01,2013-07-06 12:43:00,
2013-07-06 08:48:00,81.0,62.8,29.91,SW,225,2.7,2.7,54,0.00,,CLR,0.00,VWS V14.01,2013-07-06 12:48:00,
2013-07-06 08:53:00,81.7,62.9,29.91,SW,225,2.7,2.7,53,0.00,,CLR,0.00,VWS V14.01,2013-07-06 12:53:00,
2013-07-06 08:58:00,82.4,63.0,29.91,SW,225,2.7,2.7,52,0.00,,CLR,0.00,VWS V14.01,2013-07-06 12:58:00,
2013-07-06 09:00:00,82.4,63.0,29.91,WSW,248,2.9,2.9,52,0.00,,CLR,0.00,VWS V14.01,2013-07-06 13:00:00,
2013-07-06 09:03:00,82.6,63.2,29.91,WSW,248,2.9,2.9,52,0.00,,CLR,0.00,VWS V14.01,2013-07-06 13:03:00,
2013-07-06 09:08:00,82.8,61.7,29.91,WSW,248,2.9,2.9,49,0.00,,CLR,0.00,VWS V14.01,2013-07-06 13:08:00,
2013-07-06 09:13:00,83.7,63.6,29.91,SSW,202,2.9,2.9,51,0.00,,CLR,0.00,VWS V14.01,2013-07-06 13:13:00,
2013-07-06 09:18:00,84.6,62.7,29.91,WSW,248,3.6,3.6,48,0.00,,CLR,0.00,VWS V14.01,2013-07-06 13:18:00,
2013-07-06 09:23:00,85.3,62.2,29.91,WSW,248,3.6,3.6,46,0.00,,CLR,0.00,VWS V14.01,2013-07-06 13:23:00,
2013-07-06 09:28:00,84.9,61.2,29.91,WSW,248,3.6,3.6,45,0.00,,CLR,0.00,VWS V14.01,2013-07-06 13:28:00,
2013-07-06 09:33:00,85.5,61.7,29.91,WSW,248,3.6,3.6,45,0.00,,CLR,0.00,VWS V14.01,2013-07-06 13:33:00,
2013-07-06 09:38:00,85.5,61.1,29.91,WSW,248,3.6,3.6,44,0.00,,CLR,0.00,VWS V14.01,2013-07-06 13:38:00,
2013-07-06 09:43:00,86.2,61.7,29.91,WSW,248,3.6,3.6,44,0.00,,CLR,0.00,VWS V14.01,2013-07-06 13:43:00,
2013-07-06 09:48:00,86.9,61.7,29.91,WSW,248,3.6,3.6,43,0.00,,CLR,0.00,VWS V14.01,2013-07-06 13:48:00,
2013-07-06 09:53:00,88.2,62.9,29.91,WSW,248,3.6,3.6,43,0.00,,CLR,0.00,VWS V14.01,2013-07-06 13:53:00,
2013-07-06 09:58:00,88.2,61.5,29.91,WSW,248,3.6,3.6,41,0.00,,CLR,0.00,VWS V14.01,2013-07-06 13:58:00,
2013-07-06 10:00:00,88.3,61.7,29.91,WSW,248,3.6,3.6,41,0.00,,CLR,0.00,VWS V14.01,2013-07-06 14:00:00,
2013-07-06 10:03:00,88.2,61.5,29.91,WSW,248,3.6,3.6,41,0.00,,CLR,0.00,VWS V14.01,2013-07-06 14:03:00,
2013-07-06 10:08:00,88.0,60.7,29.91,WSW,248,3.6,3.6,40,0.00,,CLR,0.00,VWS V14.01,2013-07-06 14:08:00,
2013-07-06 10:13:00,89.2,61.1,29.91,WSW,248,3.6,3.6,39,0.00,,CLR,0.00,VWS V14.01,2013-07-06 14:13:00,
2013-07-06 10:18:00,90.1,61.9,29.91,SSE,158,3.4,3.6,39,0.00,,CLR,0.00,VWS V14.01,2013-07-06 14:18:00,
2013-07-06 10:23:00,90.1,58.8,29.91,SSE,158,3.4,3.6,35,0.00,,CLR,0.00,VWS V14.01,2013-07-06 14:23:00,
2013-07-06 10:28:00,91.4,61.5,29.91,SSE,158,3.4,3.6,37,0.00,,CLR,0.00,VWS V14.01,2013-07-06 14:28:00,
2013-07-06 10:33:00,88.5,59.7,29.91,SSE,158,3.4,3.6,38,0.00,,CLR,0.00,VWS V14.01,2013-07-06 14:33:00,
2013-07-06 10:38:00,90.3,61.3,29.91,SSW,202,2.0,3.6,38,0.00,,CLR,0.00,VWS V14.01,2013-07-06 14:38:00,
2013-07-06 10:43:00,92.7,62.6,29.91,SW,225,2.5,3.6,37,0.00,,CLR,0.00,VWS V14.01,2013-07-06 14:43:00,
2013-07-06 10:48:00,89.1,59.4,29.91,SW,225,2.5,3.6,37,0.00,,CLR,0.00,VWS V14.01,2013-07-06 14:48:00,
2013-07-06 10:53:00,91.8,61.8,29.91,SW,225,2.5,3.6,37,0.00,,CLR,0.00,VWS V14.01,2013-07-06 14:53:00,
2013-07-06 10:58:00,93.4,61.7,29.91,SE,135,1.6,3.6,35,0.00,,CLR,0.00,VWS V14.01,2013-07-06 14:58:00,
2013-07-06 11:00:00,93.7,60.3,29.91,SE,135,1.6,3.6,33,0.00,,CLR,0.00,VWS V14.01,2013-07-06 15:00:00,
2013-07-06 11:04:00,93.6,60.2,29.91,SE,135,1.6,1.6,33,0.00,,CLR,0.00,VWS V14.01,2013-07-06 15:04:00,
2013-07-06 11:09:00,90.3,58.2,29.91,SSW,202,3.8,3.8,34,0.00,,CLR,0.00,VWS V14.01,2013-07-06 15:09:00,
2013-07-06 11:14:00,91.2,59.8,29.91,South,180,3.8,3.8,35,0.00,,CLR,0.00,VWS V14.01,2013-07-06 15:14:00,
2013-07-06 11:19:00,91.6,60.1,29.91,South,180,3.8,3.8,35,0.00,,CLR,0.00,VWS V14.01,2013-07-06 15:19:00,
2013-07-06 11:24:00,93.2,59.8,29.91,South,180,3.8,3.8,33,0.00,,CLR,0.00,VWS V14.01,2013-07-06 15:24:00,
2013-07-06 11:29:00,88.2,57.9,29.91,SSE,158,3.8,3.8,36,0.00,,CLR,0.00,VWS V14.01,2013-07-06 15:29:00,
2013-07-06 11:34:00,89.6,57.5,29.91,SSE,158,3.6,4.3,34,0.00,,CLR,0.00,VWS V14.01,2013-07-06 15:34:00,
2013-07-06 11:39:00,90.7,59.3,29.91,SSW,202,3.6,4.3,35,0.00,,CLR,0.00,VWS V14.01,2013-07-06 15:39:00,
2013-07-06 11:44:00,92.3,60.7,29.91,SSW,202,2.9,4.3,35,0.00,,CLR,0.00,VWS V14.01,2013-07-06 15:44:00,
2013-07-06 11:49:00,92.1,57.2,29.91,SSE,158,3.6,4.3,31,0.00,,CLR,0.00,VWS V14.01,2013-07-06 15:49:00,
2013-07-06 11:54:00,90.7,60.1,29.91,SSW,202,3.8,7.6,36,0.00,,CLR,0.00,VWS V14.01,2013-07-06 15:54:00,
2013-07-06 11:59:00,91.6,56.7,29.91,SSE,158,5.8,7.6,31,0.00,,CLR,0.00,VWS V14.01,2013-07-06 15:59:00,
2013-07-06 12:00:00,91.6,56.7,29.91,SSE,158,6.0,7.6,31,0.00,,CLR,0.00,VWS V14.01,2013-07-06 16:00:00,
2013-07-06 12:04:00,91.2,59.8,29.91,SSE,158,5.4,6.0,35,0.00,,CLR,0.00,VWS V14.01,2013-07-06 16:04:00,
2013-07-06 12:10:00,89.6,56.7,29.91,SSW,202,2.7,6.0,33,0.00,,CLR,0.00,VWS V14.01,2013-07-06 16:10:00,
2013-07-06 12:15:00,90.1,58.8,29.91,South,180,3.6,6.0,35,0.00,,CLR,0.00,VWS V14.01,2013-07-06 16:15:00,
2013-07-06 12:22:00,89.8,58.5,29.91,SSW,202,3.4,6.5,35,0.00,,CLR,0.00,VWS V14.01,2013-07-06 16:22:00,
2013-07-06 12:27:00,88.2,56.3,29.91,SSW,202,5.4,6.5,34,0.00,,CLR,0.00,VWS V14.01,2013-07-06 16:27:00,
2013-07-06 12:37:00,89.8,58.5,29.91,SSW,202,0.0,6.5,35,0.00,,CLR,0.00,VWS V14.01,2013-07-06 16:37:00,
2013-07-06 12:43:00,88.9,60.0,29.91,WSW,248,4.9,6.5,38,0.00,,CLR,0.00,VWS V14.01,2013-07-06 16:43:00,
2013-07-06 12:48:00,89.4,59.0,29.91,WSW,248,4.9,6.5,36,0.00,,CLR,0.00,VWS V14.01,2013-07-06 16:48:00,
2013-07-06 12:55:00,90.3,59.0,29.88,WSW,248,4.0,6.5,35,0.00,,CLR,0.00,VWS V14.01,2013-07-06 16:55:00,
2013-07-06 13:00:00,90.5,60.7,29.88,South,180,3.8,6.5,37,0.00,,CLR,0.00,VWS V14.01,2013-07-06 17:00:00,
2013-07-06 13:01:00,90.5,59.1,29.88,SSW,202,5.4,7.8,35,0.00,,CLR,0.00,VWS V14.01,2013-07-06 17:01:00,
2013-07-06 13:10:00,91.0,61.9,29.88,SW,225,2.5,7.8,38,0.00,,CLR,0.00,VWS V14.01,2013-07-06 17:10:00,
2013-07-06 13:16:00,91.9,58.8,29.88,SSW,202,1.6,7.8,33,0.00,,CLR,0.00,VWS V14.01,2013-07-06 17:16:00,
2013-07-06 13:22:00,91.8,58.6,29.88,SSE,158,3.1,7.8,33,0.00,,CLR,0.00,VWS V14.01,2013-07-06 17:22:00,
2013-07-06 13:29:00,91.6,59.3,29.88,SW,225,4.7,7.8,34,0.00,,CLR,0.00,VWS V14.01,2013-07-06 17:29:00,
2013-07-06 13:34:00,91.9,57.0,29.88,South,180,2.5,7.8,31,0.00,,CLR,0.00,VWS V14.01,2013-07-06 17:34:00,
2013-07-06 13:41:00,90.5,56.6,29.88,SE,135,5.8,10.5,32,0.00,,CLR,0.00,VWS V14.01,2013-07-06 17:41:00,
2013-07-06 13:46:00,90.5,58.3,29.88,South,180,3.6,10.5,34,0.00,,CLR,0.00,VWS V14.01,2013-07-06 17:46:00,
2013-07-06 13:51:00,90.1,55.5,29.85,South,180,3.4,10.5,31,0.00,,CLR,0.00,VWS V14.01,2013-07-06 17:51:00,
2013-07-06 13:56:00,87.8,57.5,29.85,South,180,1.6,10.5,36,0.00,,CLR,0.00,VWS V14.01,2013-07-06 17:56:00,
2013-07-06 14:00:00,87.1,57.7,29.85,SSW,202,3.8,10.5,37,0.00,,CLR,0.00,VWS V14.01,2013-07-06 18:00:00,
2013-07-06 14:02:00,86.9,58.3,29.85,SSW,202,3.8,3.8,38,0.00,,CLR,0.00,VWS V14.01,2013-07-06 18:02:00,
2013-07-06 14:09:00,90.9,60.2,29.85,SSW,202,2.7,4.3,36,0.00,,CLR,0.00,VWS V14.01,2013-07-06 18:09:00,
2013-07-06 14:14:00,91.6,61.7,29.85,SSW,202,5.6,5.6,37,0.00,,CLR,0.00,VWS V14.01,2013-07-06 18:14:00,
2013-07-06 14:23:00,88.0,55.3,29.85,SW,225,3.8,5.6,33,0.00,,CLR,0.00,VWS V14.01,2013-07-06 18:23:00,
2013-07-06 14:30:00,88.3,58.8,29.85,South,180,3.4,5.8,37,0.00,,CLR,0.00,VWS V14.01,2013-07-06 18:30:00,
2013-07-06 14:35:00,91.6,60.1,29.82,SE,135,2.9,5.8,35,0.00,,CLR,0.00,VWS V14.01,2013-07-06 18:35:00,
2013-07-06 14:40:00,90.3,59.0,29.82,SSE,158,4.7,7.6,35,0.00,,CLR,0.00,VWS V14.01,2013-07-06 18:40:00,
2013-07-06 14:48:00,92.7,57.6,29.82,SSE,158,5.6,7.6,31,0.00,,CLR,0.00,VWS V14.01,2013-07-06 18:48:00,
2013-07-06 14:54:00,93.9,59.6,29.85,SSW,202,5.6,7.6,32,0.00,,CLR,0.00,VWS V14.01,2013-07-06 18:54:00,
2013-07-06 15:00:00,92.7,57.6,29.85,ESE,112,2.9,7.6,31,0.00,,CLR,0.00,VWS V14.01,2013-07-06 19:00:00,
2013-07-06 15:05:00,93.2,57.2,29.85,SSW,202,3.4,4.7,30,0.00,,CLR,0.00,VWS V14.01,2013-07-06 19:05:00,
2013-07-06 15:10:00,92.8,57.8,29.85,South,180,4.0,6.0,31,0.00,,CLR,0.00,VWS V14.01,2013-07-06 19:10:00,
2013-07-06 15:15:00,93.2,57.2,29.85,SSE,158,4.7,6.7,30,0.00,,CLR,0.00,VWS V14.01,2013-07-06 19:15:00,
2013-07-06 15:21:00,93.0,56.1,29.85,South,180,2.7,6.7,29,0.00,,CLR,0.00,VWS V14.01,2013-07-06 19:21:00,
2013-07-06 15:29:00,89.1,56.2,29.85,South,180,4.3,6.7,33,0.00,,CLR,0.00,VWS V14.01,2013-07-06 19:29:00,
2013-07-06 15:34:00,87.6,58.9,29.88,SSW,202,5.6,6.7,38,0.00,,CLR,0.00,VWS V14.01,2013-07-06 19:34:00,
2013-07-06 15:41:00,88.7,56.8,29.88,South,180,6.0,6.7,34,0.00,,CLR,0.00,VWS V14.01,2013-07-06 19:41:00,
2013-07-06 15:48:00,89.2,58.8,29.85,South,180,4.9,7.4,36,0.00,,CLR,0.00,VWS V14.01,2013-07-06 19:48:00,
2013-07-06 15:53:00,88.2,60.1,29.85,South,180,5.4,11.0,39,0.00,,CLR,0.00,VWS V14.01,2013-07-06 19:53:00,
2013-07-06 16:00:00,86.9,59.7,29.85,SSW,202,6.3,11.0,40,0.00,,CLR,0.00,VWS V14.01,2013-07-06 20:00:00,
2013-07-06 16:05:00,87.1,59.2,29.85,South,180,7.2,11.0,39,0.00,,CLR,0.00,VWS V14.01,2013-07-06 20:05:00,
2013-07-06 16:10:00,87.4,60.2,29.85,South,180,4.3,11.0,40,0.00,,CLR,0.00,VWS V14.01,2013-07-06 20:10:00,
2013-07-06 16:15:00,86.9,59.0,29.85,SSW,202,4.9,11.0,39,0.00,,CLR,0.00,VWS V14.01,2013-07-06 20:15:00,
2013-07-06 16:20:00,86.4,59.9,29.85,SSW,202,4.0,11.0,41,0.00,,CLR,0.00,VWS V14.01,2013-07-06 20:20:00,
2013-07-06 16:26:00,86.2,59.7,29.85,SW,225,6.0,11.0,41,0.00,,CLR,0.00,VWS V14.01,2013-07-06 20:26:00,
2013-07-06 16:31:00,86.7,61.6,29.85,SSW,202,3.6,11.0,43,0.00,,CLR,0.00,VWS V14.01,2013-07-06 20:31:00,
2013-07-06 16:36:00,86.7,60.2,29.85,SSW,202,4.7,11.0,41,0.00,,CLR,0.00,VWS V14.01,2013-07-06 20:36:00,
2013-07-06 16:41:00,86.4,60.6,29.85,SSW,202,4.5,11.0,42,0.00,,CLR,0.00,VWS V14.01,2013-07-06 20:41:00,
2013-07-06 16:48:00,85.8,59.4,29.85,SSW,202,3.4,11.0,41,0.00,,CLR,0.00,VWS V14.01,2013-07-06 20:48:00,
2013-07-06 16:53:00,85.6,59.9,29.85,SSW,202,4.9,11.0,42,0.00,,CLR,0.00,VWS V14.01,2013-07-06 20:53:00,
2013-07-06 16:59:00,85.6,59.9,29.85,SSE,158,4.0,11.0,42,0.00,,CLR,0.00,VWS V14.01,2013-07-06 20:59:00,
2013-07-06 17:00:00,85.6,59.9,29.85,SSE,158,4.0,11.0,42,0.00,,CLR,0.00,VWS V14.01,2013-07-06 21:00:00,
2013-07-06 17:04:00,85.5,59.8,29.85,South,180,4.5,4.5,42,0.00,,CLR,0.00,VWS V14.01,2013-07-06 21:04:00,
2013-07-06 17:10:00,84.9,58.6,29.85,South,180,3.6,4.9,41,0.00,,CLR,0.00,VWS V14.01,2013-07-06 21:10:00,
2013-07-06 17:16:00,84.7,59.1,29.85,South,180,3.8,5.4,42,0.00,,CLR,0.00,VWS V14.01,2013-07-06 21:16:00,
2013-07-06 17:21:00,84.4,59.5,29.82,SSW,202,5.6,5.6,43,0.00,,CLR,0.00,VWS V14.01,2013-07-06 21:21:00,
2013-07-06 17:26:00,84.2,60.0,29.82,SSW,202,3.6,5.6,44,0.00,,CLR,0.00,VWS V14.01,2013-07-06 21:26:00,
2013-07-06 17:31:00,84.2,60.0,29.82,SSE,158,4.9,5.6,44,0.00,,CLR,0.00,VWS V14.01,2013-07-06 21:31:00,
2013-07-06 17:37:00,84.2,60.0,29.82,SSW,202,2.7,5.6,44,0.00,,CLR,0.00,VWS V14.01,2013-07-06 21:37:00,
2013-07-06 17:44:00,84.0,59.8,29.82,SSW,202,2.9,5.6,44,0.00,,CLR,0.00,VWS V14.01,2013-07-06 21:44:00,
2013-07-06 17:50:00,83.8,60.9,29.85,SSW,202,2.5,5.6,46,0.00,,CLR,0.00,VWS V14.01,2013-07-06 21:50:00,
2013-07-06 17:56:00,83.8,60.2,29.85,South,180,2.9,5.6,45,0.00,,CLR,0.00,VWS V14.01,2013-07-06 21:56:00,
2013-07-06 18:00:00,84.2,61.2,29.85,South,180,2.7,5.6,46,0.00,,CLR,0.00,VWS V14.01,2013-07-06 22:00:00,
2013-07-06 18:02:00,84.2,60.6,29.85,WSW,248,1.6,2.7,45,0.00,,CLR,0.00,VWS V14.01,2013-07-06 22:02:00,
2013-07-06 18:08:00,84.2,60.6,29.79,WSW,248,3.1,3.1,45,0.00,,CLR,0.00,VWS V14.01,2013-07-06 22:08:00,
2013-07-06 18:15:00,83.7,60.1,29.79,SSW,202,2.9,3.8,45,0.00,,CLR,0.00,VWS V14.01,2013-07-06 22:15:00,
2013-07-06 18:17:00,83.7,60.1,29.82,SW,225,2.7,2.7,45,0.00,,CLR,0.00,VWS V14.01,2013-07-06 22:17:00,
2013-07-06 18:22:00,83.3,61.0,29.82,SSW,202,2.2,2.7,47,0.00,,CLR,0.00,VWS V14.01,2013-07-06 22:22:00,
2013-07-06 18:27:00,83.3,61.6,29.82,South,180,3.8,3.8,48,0.00,,CLR,0.00,VWS V14.01,2013-07-06 22:27:00,
2013-07-06 18:32:00,82.8,61.7,29.76,SSW,202,2.0,3.8,49,0.00,,CLR,0.00,VWS V14.01,2013-07-06 22:32:00,
2013-07-06 18:37:00,82.4,62.5,29.76,South,180,4.0,4.0,51,0.00,,CLR,0.00,VWS V14.01,2013-07-06 22:37:00,
2013-07-06 18:42:00,82.2,62.3,29.76,South,180,4.9,4.9,51,0.00,,CLR,0.00,VWS V14.01,2013-07-06 22:42:00,
2013-07-06 18:47:00,82.2,63.4,29.76,SSE,158,3.6,4.9,53,0.00,,CLR,0.00,VWS V14.01,2013-07-06 22:47:00,
2013-07-06 18:52:00,82.2,63.4,29.76,South,180,2.9,3.6,53,0.00,,CLR,0.00,VWS V14.01,2013-07-06 22:52:00,
2013-07-06 18:57:00,82.2,63.4,29.76,South,180,3.4,3.4,53,0.00,,CLR,0.00,VWS V14.01,2013-07-06 22:57:00,
2013-07-06 19:02:00,81.7,64.0,29.76,SW,225,2.9,3.4,55,0.00,,CLR,0.00,VWS V14.01,2013-07-06 23:02:00,
2013-07-06 19:07:00,81.1,65.5,29.76,SSW,202,3.6,3.6,59,0.00,,CLR,0.00,VWS V14.01,2013-07-06 23:07:00,
2013-07-06 19:12:00,80.8,65.6,29.76,SSW,202,4.9,4.9,60,0.00,,CLR,0.00,VWS V14.01,2013-07-06 23:12:00,
2013-07-06 19:17:00,82.0,67.3,29.79,SSE,158,4.3,4.9,61,0.00,,CLR,0.00,VWS V14.01,2013-07-06 23:17:00,
2013-07-06 19:22:00,81.9,66.1,29.79,SW,225,2.7,4.3,59,0.00,,CLR,0.00,VWS V14.01,2013-07-06 23:22:00,
2013-07-06 19:27:00,81.5,65.8,29.79,SSW,202,2.9,2.9,59,0.00,,CLR,0.00,VWS V14.01,2013-07-06 23:27:00,
2013-07-06 19:32:00,81.0,65.8,29.79,SSW,202,3.4,3.4,60,0.00,,CLR,0.00,VWS V14.01,2013-07-06 23:32:00,
2013-07-06 19:37:00,80.6,65.4,29.79,SSW,202,2.9,3.4,60,0.00,,CLR,0.00,VWS V14.01,2013-07-06 23:37:00,
2013-07-06 19:42:00,80.2,65.6,29.79,SSW,202,1.6,2.9,61,0.00,,CLR,0.00,VWS V14.01,2013-07-06 23:42:00,
2013-07-06 19:47:00,80.2,66.1,29.79,SW,225,1.3,1.6,62,0.00,,CLR,0.00,VWS V14.01,2013-07-06 23:47:00,
2013-07-06 19:52:00,80.2,66.1,29.79,SW,225,2.0,2.0,62,0.00,,CLR,0.00,VWS V14.01,2013-07-06 23:52:00,
2013-07-06 19:57:00,79.7,65.5,29.79,SSW,202,2.9,2.9,62,0.00,,CLR,0.00,VWS V14.01,2013-07-06 23:57:00,
2013-07-06 20:02:00,79.2,65.5,29.79,SW,225,2.2,2.9,63,0.00,,CLR,0.00,VWS V14.01,2013-07-07 00:02:00,
2013-07-06 20:07:00,79.0,65.8,29.79,WSW,248,2.7,2.7,64,0.00,,CLR,0.00,VWS V14.01,2013-07-07 00:07:00,
2013-07-06 20:12:00,78.6,65.9,29.79,SW,225,2.7,2.7,65,0.00,,CLR,0.00,VWS V14.01,2013-07-07 00:12:00,
2013-07-06 20:17:00,78.1,65.8,29.79,SSE,158,8.7,8.7,66,0.00,,CLR,0.00,VWS V14.01,2013-07-07 00:17:00,
2013-07-06 20:22:00,77.4,64.7,29.79,South,180,4.3,8.7,65,0.00,,CLR,0.00,VWS V14.01,2013-07-07 00:22:00,
2013-07-06 20:27:00,77.2,64.9,29.79,South,180,5.8,5.8,66,0.00,,CLR,0.00,VWS V14.01,2013-07-07 00:27:00,
2013-07-06 20:32:00,76.8,65.0,29.79,SSW,202,2.9,5.8,67,0.00,,CLR,0.00,VWS V14.01,2013-07-07 00:32:00,
2013-07-06 20:37:00,76.6,65.3,29.79,South,180,5.4,5.4,68,0.00,,CLR,0.00,VWS V14.01,2013-07-07 00:37:00,
2013-07-06 20:42:00,76.5,65.1,29.79,SSE,158,2.9,5.4,68,0.00,,CLR,0.00,VWS V14.01,2013-07-07 00:42:00,
2013-07-06 20:47:00,76.1,64.8,29.79,South,180,3.8,3.8,68,0.00,,CLR,0.00,VWS V14.01,2013-07-07 00:47:00,